Location: Recife
(8.0585°S, 34.8848°W)
Time: 09:51:58
(UTC-03:00)

Transit 2A Rocket - Pass Details

Date: 18 April 2026
Orbit: 587 x 895 km, 66.7° (Epoch: 14 May)

Event Time Altitude Azimuth Distance (km) Brightness Sun altitude
Rises 12:06:15 0° 318° (NW) 2,809 8.2 67.6°
Reaches altitude 10° 12:08:46 10° 304° (NW) 1,903 7.6 67.3°
Maximum altitude 12:12:17 25° 248° (WSW) 1,192 6.5 66.8°
Drops below altitude 10° 12:15:53 10° 191° (SSW) 1,939 7.1 66.3°
Sets 12:18:29 0° 178° (S) 2,873 7.8 65.9°
